User: anonymous   Login
Location: Bothell
(47.7630°N, 122.2040°W)
Time: 05:28:28
(UTC-07:00)
Language:

Oscar 16 - Orbit

View from above orbital plane
View from above orbital plane
View from above satellite
View from above satellite

Ground track
Ground track

The orbit data is extracted from the following two-line orbital elements,

1 20439U 90005D   16209.90369718  .00000004  00000-0  17503-4 0  9997
2 20439  98.5750 145.9880 0011710  43.9847 359.9695 14.32639294384974
Epoch (UTC): 27 July 2016 21:41:19
Eccentricity: 0.0011710
inclination: 98.5750°
perigee height: 774 km
apogee height: 791 km
right ascension of ascending node: 145.9880°
argument of perigee: 43.9847°
revolutions per day: 14.32639294
mean anomaly at epoch: 359.9695°
orbit number at epoch: 38497

The dashed part of the orbit path shows where the satellite is in the earth's shadow,  

DLR